Time,TemperatureF,DewpointF,PressureIn,WindDirection,WindDirectionDegrees,WindSpeedMPH,WindSpeedGustMPH,Humidity,HourlyPrecipIn,Conditions,Clouds,dailyrainin,SoftwareType,DateUTC
2013-01-24 00:03:00,15.3,2.4,30.19,NE,55,3.0,5.0,56,0.00,,,0.00,Wunderground v.1.15,2013-01-24 05:03:00,
2013-01-24 00:08:00,15.4,2.9,30.19,ENE,74,3.0,3.0,57,0.00,,,0.00,Wunderground v.1.15,2013-01-24 05:08:00,
2013-01-24 00:13:00,15.2,3.1,30.19,NE,36,3.0,11.0,58,0.00,,,0.00,Wunderground v.1.15,2013-01-24 05:13:00,
2013-01-24 00:18:00,15.1,3.0,30.19,ENE,61,3.0,3.0,58,0.00,,,0.00,Wunderground v.1.15,2013-01-24 05:18:00,
2013-01-24 00:23:00,15.0,2.9,30.19,ENE,61,3.0,11.0,58,0.00,,,0.00,Wunderground v.1.15,2013-01-24 05:23:00,
2013-01-24 00:28:00,14.8,3.0,30.19,ENE,61,3.0,11.0,59,0.00,,,0.00,Wunderground v.1.15,2013-01-24 05:28:00,
2013-01-24 00:33:00,14.9,3.1,30.19,ENE,61,3.0,11.0,59,0.00,,,0.00,Wunderground v.1.15,2013-01-24 05:33:00,
2013-01-24 00:38:00,14.6,2.9,30.19,ENE,61,2.0,2.0,59,0.00,,,0.00,Wunderground v.1.15,2013-01-24 05:38:00,
2013-01-24 00:48:00,14.0,3.0,30.18,NE,55,2.0,11.0,61,0.00,,,0.00,Wunderground v.1.15,2013-01-24 05:48:00,
2013-01-24 00:58:00,14.3,2.9,30.18,NE,56,3.0,11.0,60,0.00,,,0.00,Wunderground v.1.15,2013-01-24 05:58:00,
2013-01-24 01:03:00,14.1,2.4,30.18,NE,56,3.0,11.0,59,0.00,,,0.00,Wunderground v.1.15,2013-01-24 06:03:00,
2013-01-24 01:08:00,14.1,2.4,30.17,NE,56,2.0,2.0,59,0.00,,,0.00,Wunderground v.1.15,2013-01-24 06:08:00,
2013-01-24 01:18:00,13.6,1.9,30.17,NE,56,1.0,11.0,59,0.00,,,0.00,Wunderground v.1.15,2013-01-24 06:18:00,
2013-01-24 01:28:00,12.8,1.5,30.17,NE,56,2.0,11.0,60,0.00,,,0.00,Wunderground v.1.15,2013-01-24 06:28:00,
2013-01-24 01:37:00,13.6,1.2,30.17,ENE,59,3.0,3.0,57,0.00,,,0.00,Wunderground v.1.15,2013-01-24 06:37:00,
2013-01-24 01:42:00,13.6,1.2,30.17,ENE,59,3.0,11.0,57,0.00,,,0.00,Wunderground v.1.15,2013-01-24 06:42:00,
2013-01-24 01:52:00,13.9,1.5,30.17,ENE,60,3.0,11.0,57,0.00,,,0.00,Wunderground v.1.15,2013-01-24 06:52:00,
2013-01-24 01:57:00,14.0,1.5,30.17,ENE,60,3.0,3.0,57,0.00,,,0.00,Wunderground v.1.15,2013-01-24 06:57:00,
2013-01-24 02:07:00,13.4,1.0,30.17,ENE,60,1.0,1.0,57,0.00,,,0.00,Wunderground v.1.15,2013-01-24 07:07:00,
2013-01-24 02:12:00,12.9,0.9,30.17,ENE,60,0.0,11.0,58,0.00,,,0.00,Wunderground v.1.15,2013-01-24 07:12:00,
2013-01-24 02:17:00,12.3,1.0,30.17,ENE,60,0.0,11.0,60,0.00,,,0.00,Wunderground v.1.15,2013-01-24 07:17:00,
2013-01-24 02:22:00,12.3,1.4,30.17,ENE,60,1.0,11.0,61,0.00,,,0.00,Wunderground v.1.15,2013-01-24 07:22:00,
2013-01-24 02:27:00,12.7,1.4,30.17,ENE,60,2.0,2.0,60,0.00,,,0.00,Wunderground v.1.15,2013-01-24 07:27:00,
2013-01-24 02:37:00,13.3,1.3,30.16,ENE,61,2.0,11.0,58,0.00,,,0.00,Wunderground v.1.15,2013-01-24 07:37:00,
2013-01-24 02:42:00,13.6,1.9,30.16,ENE,62,2.0,11.0,59,0.00,,,0.00,Wunderground v.1.15,2013-01-24 07:42:00,
2013-01-24 02:47:00,13.7,2.4,30.16,ENE,62,2.0,11.0,60,0.00,,,0.00,Wunderground v.1.15,2013-01-24 07:47:00,
2013-01-24 02:52:00,13.7,2.4,30.16,ENE,62,1.0,11.0,60,0.00,,,0.00,Wunderground v.1.15,2013-01-24 07:52:00,
2013-01-24 03:02:00,13.5,2.2,30.15,ENE,62,1.0,11.0,60,0.00,,,0.00,Wunderground v.1.15,2013-01-24 08:02:00,
2013-01-24 03:08:00,13.3,2.3,30.15,ENE,62,1.0,2.0,61,0.00,,,0.00,Wunderground v.1.15,2013-01-24 08:08:00,
2013-01-24 03:18:00,13.3,2.7,30.15,ENE,62,2.0,11.0,62,0.00,,,0.00,Wunderground v.1.15,2013-01-24 08:18:00,
2013-01-24 03:28:00,13.7,3.1,30.15,East,80,2.0,11.0,62,0.00,,,0.00,Wunderground v.1.15,2013-01-24 08:28:00,
2013-01-24 03:38:00,13.8,3.2,30.14,East,80,2.0,11.0,62,0.00,,,0.00,Wunderground v.1.15,2013-01-24 08:38:00,
2013-01-24 03:43:00,13.9,2.9,30.14,East,82,2.0,11.0,61,0.00,,,0.00,Wunderground v.1.15,2013-01-24 08:43:00,
2013-01-24 03:53:00,14.0,3.0,30.14,East,82,2.0,11.0,61,0.00,,,0.00,Wunderground v.1.15,2013-01-24 08:53:00,
2013-01-24 03:58:00,14.2,2.8,30.14,East,81,3.0,3.0,60,0.00,,,0.00,Wunderground v.1.15,2013-01-24 08:58:00,
2013-01-24 04:08:00,14.5,2.8,30.14,East,82,3.0,11.0,59,0.00,,,0.00,Wunderground v.1.15,2013-01-24 09:08:00,
2013-01-24 04:13:00,14.7,2.6,30.15,East,93,4.0,11.0,58,0.00,,,0.00,Wunderground v.1.15,2013-01-24 09:13:00,
2013-01-24 04:18:00,14.7,2.6,30.15,East,89,4.0,4.0,58,0.00,,,0.00,Wunderground v.1.15,2013-01-24 09:18:00,
2013-01-24 04:23:00,14.9,2.4,30.14,East,88,4.0,11.0,57,0.00,,,0.00,Wunderground v.1.15,2013-01-24 09:23:00,
2013-01-24 04:28:00,15.2,3.4,30.15,East,86,4.0,4.0,59,0.00,,,0.00,Wunderground v.1.15,2013-01-24 09:28:00,
2013-01-24 04:33:00,15.2,3.8,30.15,East,96,3.0,5.0,60,0.00,,,0.00,Wunderground v.1.15,2013-01-24 09:33:00,
2013-01-24 04:43:00,15.1,4.1,30.15,ENE,74,4.0,11.0,61,0.00,,,0.00,Wunderground v.1.15,2013-01-24 09:43:00,
2013-01-24 04:48:00,15.0,4.3,30.15,East,85,3.0,3.0,62,0.00,,,0.00,Wunderground v.1.15,2013-01-24 09:48:00,
2013-01-24 04:58:00,15.0,5.3,30.15,East,94,3.0,11.0,65,0.00,,,0.00,Wunderground v.1.15,2013-01-24 09:58:00,
2013-01-24 05:03:00,14.9,5.2,30.15,East,101,4.0,11.0,65,0.00,,,0.00,Wunderground v.1.15,2013-01-24 10:03:00,
2013-01-24 05:08:00,14.8,5.5,30.15,East,101,3.0,3.0,66,0.00,,,0.00,Wunderground v.1.15,2013-01-24 10:08:00,
2013-01-24 05:18:00,14.6,5.6,30.15,East,93,3.0,3.0,67,0.00,,,0.00,Wunderground v.1.15,2013-01-24 10:18:00,
2013-01-24 05:23:00,14.4,5.1,30.16,ENE,76,3.0,11.0,66,0.00,,,0.00,Wunderground v.1.15,2013-01-24 10:23:00,
2013-01-24 05:32:00,14.3,5.3,30.16,East,86,3.0,11.0,67,0.00,,,0.00,Wunderground v.1.15,2013-01-24 10:32:00,
2013-01-24 05:38:00,14.1,5.5,30.15,East,87,3.0,3.0,68,0.00,,,0.00,Wunderground v.1.15,2013-01-24 10:38:00,
2013-01-24 05:48:00,14.0,5.7,30.16,East,96,4.0,11.0,69,0.00,,,0.00,Wunderground v.1.15,2013-01-24 10:48:00,
2013-01-24 05:53:00,14.0,5.7,30.16,ESE,111,4.0,11.0,69,0.00,,,0.00,Wunderground v.1.15,2013-01-24 10:53:00,
2013-01-24 05:58:00,14.0,6.0,30.16,East,98,4.0,4.0,70,0.00,,,0.00,Wunderground v.1.15,2013-01-24 10:58:00,
2013-01-24 06:07:00,13.9,5.9,30.16,East,99,4.0,8.0,70,0.00,,,0.00,Wunderground v.1.15,2013-01-24 11:07:00,
2013-01-24 06:12:00,13.8,5.8,30.17,East,99,3.0,8.0,70,0.00,,,0.00,Wunderground v.1.15,2013-01-24 11:12:00,
2013-01-24 06:17:00,13.7,6.0,30.17,ESE,103,3.0,8.0,71,0.00,,,0.00,Wunderground v.1.15,2013-01-24 11:17:00,
2013-01-24 06:22:00,13.6,5.9,30.17,ESE,102,3.0,8.0,71,0.00,,,0.00,Wunderground v.1.15,2013-01-24 11:22:00,
2013-01-24 06:32:00,13.5,5.8,30.17,East,89,3.0,8.0,71,0.00,,,0.00,Wunderground v.1.15,2013-01-24 11:32:00,
2013-01-24 06:37:00,13.5,5.8,30.18,East,88,3.0,8.0,71,0.00,,,0.00,Wunderground v.1.15,2013-01-24 11:37:00,
2013-01-24 06:42:00,13.6,5.9,30.17,East,88,3.0,8.0,71,0.00,,,0.00,Wunderground v.1.15,2013-01-24 11:42:00,
2013-01-24 06:47:00,13.8,6.1,30.18,East,90,4.0,8.0,71,0.00,,,0.00,Wunderground v.1.15,2013-01-24 11:47:00,
2013-01-24 06:52:00,13.9,6.2,30.18,ESE,103,5.0,8.0,71,0.00,,,0.00,Wunderground v.1.15,2013-01-24 11:52:00,
2013-01-24 06:57:00,14.1,6.1,30.18,East,90,5.0,5.0,70,0.00,,,0.00,Wunderground v.1.15,2013-01-24 11:57:00,
2013-01-24 07:02:00,14.1,6.1,30.18,East,88,5.0,8.0,70,0.00,,,0.00,Wunderground v.1.15,2013-01-24 12:02:00,
2013-01-24 07:08:00,14.1,6.1,30.18,East,92,5.0,8.0,70,0.00,,,0.00,Wunderground v.1.15,2013-01-24 12:08:00,
2013-01-24 07:13:00,14.1,6.1,30.18,ENE,74,5.0,8.0,70,0.00,,,0.00,Wunderground v.1.15,2013-01-24 12:13:00,
2013-01-24 07:18:00,14.2,5.6,30.18,East,84,5.0,5.0,68,0.00,,,0.00,Wunderground v.1.15,2013-01-24 12:18:00,
2013-01-24 07:23:00,14.4,5.8,30.18,ESE,105,6.0,9.0,68,0.00,,,0.00,Wunderground v.1.15,2013-01-24 12:23:00,
2013-01-24 07:28:00,14.6,5.6,30.18,East,81,6.0,8.0,67,0.00,,,0.00,Wunderground v.1.15,2013-01-24 12:28:00,
2013-01-24 07:38:00,14.8,5.5,30.18,East,79,6.0,8.0,66,0.00,,,0.00,Wunderground v.1.15,2013-01-24 12:38:00,
2013-01-24 07:48:00,15.0,5.0,30.18,ENE,78,7.0,17.0,64,0.00,,,0.00,Wunderground v.1.15,2013-01-24 12:48:00,
2013-01-24 07:58:00,15.2,5.2,30.18,ESE,113,8.0,8.0,64,0.00,,,0.00,Wunderground v.1.15,2013-01-24 12:58:00,
2013-01-24 08:08:00,15.4,5.0,30.19,East,88,8.0,8.0,63,0.00,,,0.00,Wunderground v.1.15,2013-01-24 13:08:00,
2013-01-24 08:18:00,15.5,5.1,30.19,East,82,7.0,8.0,63,0.00,,,0.00,Wunderground v.1.15,2013-01-24 13:18:00,
2013-01-24 08:23:00,15.6,4.9,30.19,ENE,73,8.0,11.0,62,0.00,,,0.00,Wunderground v.1.15,2013-01-24 13:23:00,
2013-01-24 08:28:00,15.9,5.2,30.19,East,90,8.0,8.0,62,0.00,,,0.00,Wunderground v.1.15,2013-01-24 13:28:00,
2013-01-24 08:33:00,16.0,5.3,30.19,East,89,8.0,8.0,62,0.00,,,0.00,Wunderground v.1.15,2013-01-24 13:33:00,
2013-01-24 08:43:00,16.1,6.4,30.19,ENE,68,8.0,11.0,65,0.00,,,0.00,Wunderground v.1.15,2013-01-24 13:43:00,
2013-01-24 08:48:00,16.0,6.0,30.19,ENE,78,8.0,8.0,64,0.00,,,0.00,Wunderground v.1.15,2013-01-24 13:48:00,
2013-01-24 08:53:00,15.9,5.5,30.19,East,92,9.0,9.0,63,0.00,,,0.00,Wunderground v.1.15,2013-01-24 13:53:00,
2013-01-24 08:58:00,15.8,5.8,30.19,East,86,9.0,9.0,64,0.00,,,0.00,Wunderground v.1.15,2013-01-24 13:58:00,
2013-01-24 09:03:00,15.9,5.9,30.19,East,96,10.0,13.0,64,0.00,,,0.00,Wunderground v.1.15,2013-01-24 14:03:00,
2013-01-24 09:13:00,16.1,6.4,30.19,East,90,9.0,10.0,65,0.00,,,0.00,Wunderground v.1.15,2013-01-24 14:13:00,
2013-01-24 09:18:00,16.2,6.5,30.20,ENE,76,9.0,10.0,65,0.00,,,0.00,Wunderground v.1.15,2013-01-24 14:18:00,
2013-01-24 09:28:00,16.4,6.7,30.19,ENE,66,11.0,14.0,65,0.00,,,0.00,Wunderground v.1.15,2013-01-24 14:28:00,
2013-01-24 09:33:00,16.4,6.7,30.20,East,92,11.0,14.0,65,0.00,,,0.00,Wunderground v.1.15,2013-01-24 14:33:00,
2013-01-24 09:38:00,16.8,7.4,30.20,ESE,103,9.0,9.0,66,0.00,,,0.00,Wunderground v.1.15,2013-01-24 14:38:00,
2013-01-24 09:48:00,16.8,7.1,30.20,ENE,78,10.0,10.0,65,0.00,,,0.00,Wunderground v.1.15,2013-01-24 14:48:00,
2013-01-24 09:53:00,16.8,6.7,30.20,East,90,11.0,13.0,64,0.00,,,0.00,Wunderground v.1.15,2013-01-24 14:53:00,
2013-01-24 10:02:00,17.1,6.7,30.20,East,91,10.0,11.0,63,0.00,,,0.00,Wunderground v.1.15,2013-01-24 15:02:00,
2013-01-24 10:08:00,17.1,6.7,30.20,NE,53,11.0,11.0,63,0.00,,,0.00,Wunderground v.1.15,2013-01-24 15:08:00,
2013-01-24 10:17:00,17.4,6.9,30.20,East,79,9.0,9.0,63,0.00,,,0.00,Wunderground v.1.15,2013-01-24 15:17:00,
2013-01-24 10:27:00,17.3,6.1,30.20,ENE,72,12.0,12.0,61,0.00,,,0.00,Wunderground v.1.15,2013-01-24 15:27:00,
2013-01-24 10:32:00,17.1,5.2,30.20,ENE,65,12.0,13.0,59,0.00,,,0.00,Wunderground v.1.15,2013-01-24 15:32:00,
2013-01-24 10:37:00,16.8,4.2,30.20,NE,51,13.0,13.0,57,0.00,,,0.00,Wunderground v.1.15,2013-01-24 15:37:00,
2013-01-24 10:42:00,16.8,4.6,30.20,ENE,61,14.0,15.0,58,0.00,,,0.00,Wunderground v.1.15,2013-01-24 15:42:00,
2013-01-24 10:52:00,17.3,5.4,30.20,ENE,67,11.0,14.0,59,0.00,,,0.00,Wunderground v.1.15,2013-01-24 15:52:00,
2013-01-24 11:02:00,17.5,5.6,30.20,ENE,71,12.0,12.0,59,0.00,,,0.00,Wunderground v.1.15,2013-01-24 16:02:00,
2013-01-24 11:07:00,17.9,6.3,30.20,NE,54,12.0,12.0,60,0.00,,,0.00,Wunderground v.1.15,2013-01-24 16:07:00,
2013-01-24 11:12:00,18.1,6.2,30.19,ENE,63,12.0,12.0,59,0.00,,,0.00,Wunderground v.1.15,2013-01-24 16:12:00,
2013-01-24 11:22:00,18.0,4.5,30.19,ENE,78,11.0,20.0,55,0.00,,,0.00,Wunderground v.1.15,2013-01-24 16:22:00,
2013-01-24 11:27:00,17.9,4.8,30.19,East,99,13.0,14.0,56,0.00,,,0.00,Wunderground v.1.15,2013-01-24 16:27:00,
2013-01-24 11:32:00,18.0,4.9,30.19,East,82,13.0,14.0,56,0.00,,,0.00,Wunderground v.1.15,2013-01-24 16:32:00,
2013-01-24 11:42:00,18.6,4.3,30.19,NE,50,11.0,13.0,53,0.00,,,0.00,Wunderground v.1.15,2013-01-24 16:42:00,
2013-01-24 11:47:00,18.6,4.7,30.19,NE,56,11.0,11.0,54,0.00,,,0.00,Wunderground v.1.15,2013-01-24 16:47:00,
2013-01-24 11:52:00,19.1,4.8,30.18,NE,44,11.0,14.0,53,0.00,,,0.00,Wunderground v.1.15,2013-01-24 16:52:00,
2013-01-24 12:02:00,19.5,4.3,30.18,ENE,74,12.0,26.0,51,0.00,,,0.00,Wunderground v.1.15,2013-01-24 17:02:00,
2013-01-24 12:08:00,19.3,4.5,30.18,NE,38,13.0,13.0,52,0.00,,,0.00,Wunderground v.1.15,2013-01-24 17:08:00,
2013-01-24 12:18:00,18.7,3.5,30.18,ENE,71,13.0,13.0,51,0.00,,,0.00,Wunderground v.1.15,2013-01-24 17:18:00,
2013-01-24 12:23:00,18.9,3.3,30.18,NE,35,12.0,26.0,50,0.00,,,0.00,Wunderground v.1.15,2013-01-24 17:23:00,
2013-01-24 12:28:00,19.2,3.1,30.18,ENE,74,12.0,26.0,49,0.00,,,0.00,Wunderground v.1.15,2013-01-24 17:28:00,
2013-01-24 12:38:00,19.7,4.5,30.18,ENE,60,11.0,26.0,51,0.00,,,0.00,Wunderground v.1.15,2013-01-24 17:38:00,
2013-01-24 12:43:00,19.8,5.0,30.18,NE,49,12.0,26.0,52,0.00,,,0.00,Wunderground v.1.15,2013-01-24 17:43:00,
2013-01-24 12:53:00,20.3,4.2,30.19,ENE,61,12.0,26.0,49,0.00,,,0.00,Wunderground v.1.15,2013-01-24 17:53:00,
2013-01-24 12:58:00,19.7,3.6,30.19,East,85,11.0,11.0,49,0.00,,,0.00,Wunderground v.1.15,2013-01-24 17:58:00,
2013-01-24 13:03:00,19.8,2.3,30.19,ENE,65,12.0,17.0,46,0.00,,,0.00,Wunderground v.1.15,2013-01-24 18:03:00,
2013-01-24 13:08:00,20.0,2.0,30.19,ENE,65,13.0,26.0,45,0.00,,,0.00,Wunderground v.1.15,2013-01-24 18:08:00,
2013-01-24 13:13:00,20.0,1.5,30.18,NE,43,14.0,26.0,44,0.00,,,0.00,Wunderground v.1.15,2013-01-24 18:13:00,
2013-01-24 13:23:00,20.4,3.8,30.18,ENE,65,14.0,26.0,48,0.00,,,0.00,Wunderground v.1.15,2013-01-24 18:23:00,
2013-01-24 13:33:00,20.7,3.6,30.18,ENE,57,13.0,26.0,47,0.00,,,0.00,Wunderground v.1.15,2013-01-24 18:33:00,
2013-01-24 13:38:00,21.1,4.9,30.18,NNE,33,12.0,12.0,49,0.00,,,0.00,Wunderground v.1.15,2013-01-24 18:38:00,
2013-01-24 13:48:00,21.2,4.1,30.18,ENE,59,13.0,26.0,47,0.00,,,0.00,Wunderground v.1.15,2013-01-24 18:48:00,
2013-01-24 13:53:00,21.4,3.8,30.19,ENE,73,12.0,26.0,46,0.00,,,0.00,Wunderground v.1.15,2013-01-24 18:53:00,
2013-01-24 14:03:00,21.3,2.7,30.19,ENE,68,13.0,26.0,44,0.00,,,0.00,Wunderground v.1.15,2013-01-24 19:03:00,
2013-01-24 14:08:00,21.4,3.8,30.19,NE,55,13.0,13.0,46,0.00,,,0.00,Wunderground v.1.15,2013-01-24 19:08:00,
2013-01-24 14:13:00,21.6,4.4,30.19,NE,51,12.0,26.0,47,0.00,,,0.00,Wunderground v.1.15,2013-01-24 19:13:00,
2013-01-24 14:18:00,21.5,3.9,30.19,NE,56,13.0,26.0,46,0.00,,,0.00,Wunderground v.1.15,2013-01-24 19:18:00,
2013-01-24 14:23:00,21.6,4.0,30.20,NE,46,14.0,26.0,46,0.00,,,0.00,Wunderground v.1.15,2013-01-24 19:23:00,
2013-01-24 14:32:00,21.7,3.6,30.19,NE,51,13.0,18.0,45,0.00,,,0.00,Wunderground v.1.15,2013-01-24 19:32:00,
2013-01-24 14:37:00,21.6,5.4,30.20,NE,56,14.0,14.0,49,0.00,,,0.00,Wunderground v.1.15,2013-01-24 19:37:00,
2013-01-24 14:42:00,21.8,5.1,30.20,NE,46,14.0,26.0,48,0.00,,,0.00,Wunderground v.1.15,2013-01-24 19:42:00,
2013-01-24 14:47:00,21.6,3.0,30.20,NE,49,14.0,26.0,44,0.00,,,0.00,Wunderground v.1.15,2013-01-24 19:47:00,
2013-01-24 14:53:00,21.6,3.5,30.20,NE,54,14.0,26.0,45,0.00,,,0.00,Wunderground v.1.15,2013-01-24 19:53:00,
2013-01-24 14:58:00,21.7,3.1,30.21,NNE,30,13.0,13.0,44,0.00,,,0.00,Wunderground v.1.15,2013-01-24 19:58:00,
2013-01-24 15:03:00,21.7,3.1,30.20,NE,53,14.0,14.0,44,0.00,,,0.00,Wunderground v.1.15,2013-01-24 20:03:00,
2013-01-24 15:12:00,22.1,4.0,30.20,NE,45,14.0,26.0,45,0.00,,,0.00,Wunderground v.1.15,2013-01-24 20:12:00,
2013-01-24 15:22:00,22.3,3.7,30.20,NE,53,10.0,15.0,44,0.00,,,0.00,Wunderground v.1.15,2013-01-24 20:22:00,
2013-01-24 15:27:00,22.4,5.2,30.20,NE,43,10.0,10.0,47,0.00,,,0.00,Wunderground v.1.15,2013-01-24 20:27:00,
2013-01-24 15:32:00,22.4,4.2,30.21,NE,53,11.0,11.0,45,0.00,,,0.00,Wunderground v.1.15,2013-01-24 20:32:00,
2013-01-24 15:42:00,22.3,4.1,30.21,NNE,23,12.0,26.0,45,0.00,,,0.00,Wunderground v.1.15,2013-01-24 20:42:00,
2013-01-24 15:52:00,22.0,3.9,30.21,NNE,32,13.0,26.0,45,0.00,,,0.00,Wunderground v.1.15,2013-01-24 20:52:00,
2013-01-24 15:57:00,22.0,3.9,30.21,NE,34,12.0,26.0,45,0.00,,,0.00,Wunderground v.1.15,2013-01-24 20:57:00,
2013-01-24 16:04:00,21.9,3.3,30.20,NNE,18,13.0,26.0,44,0.00,,,0.00,Wunderground v.1.15,2013-01-24 21:04:00,
2013-01-24 16:13:00,22.0,3.4,30.22,NE,34,13.0,26.0,44,0.00,,,0.00,Wunderground v.1.15,2013-01-24 21:13:00,
2013-01-24 16:18:00,22.0,2.9,30.22,ENE,70,14.0,14.0,43,0.00,,,0.00,Wunderground v.1.15,2013-01-24 21:18:00,
2013-01-24 16:28:00,22.0,3.4,30.22,NE,46,13.0,26.0,44,0.00,,,0.00,Wunderground v.1.15,2013-01-24 21:28:00,
2013-01-24 16:33:00,21.8,3.2,30.22,NE,43,13.0,26.0,44,0.00,,,0.00,Wunderground v.1.15,2013-01-24 21:33:00,
2013-01-24 16:38:00,21.9,3.8,30.22,NNE,24,12.0,26.0,45,0.00,,,0.00,Wunderground v.1.15,2013-01-24 21:38:00,
2013-01-24 16:48:00,21.7,4.5,30.23,NE,41,12.0,26.0,47,0.00,,,0.00,Wunderground v.1.15,2013-01-24 21:48:00,
2013-01-24 16:53:00,21.7,4.1,30.23,NNE,27,11.0,26.0,46,0.00,,,0.00,Wunderground v.1.15,2013-01-24 21:53:00,
2013-01-24 16:58:00,21.6,4.4,30.24,NNE,15,11.0,11.0,47,0.00,,,0.00,Wunderground v.1.15,2013-01-24 21:58:00,
2013-01-24 17:03:00,21.7,3.6,30.24,NNE,33,11.0,26.0,45,0.00,,,0.00,Wunderground v.1.15,2013-01-24 22:03:00,
2013-01-24 17:13:00,21.5,4.4,30.24,NNE,20,11.0,26.0,47,0.00,,,0.00,Wunderground v.1.15,2013-01-24 22:13:00,
2013-01-24 17:23:00,21.6,4.4,30.24,NNE,29,12.0,12.0,47,0.00,,,0.00,Wunderground v.1.15,2013-01-24 22:23:00,
2013-01-24 17:28:00,21.6,4.0,30.25,NNE,14,14.0,14.0,46,0.00,,,0.00,Wunderground v.1.15,2013-01-24 22:28:00,
2013-01-24 17:38:00,21.6,4.0,30.25,North,360,11.0,26.0,46,0.00,,,0.00,Wunderground v.1.15,2013-01-24 22:38:00,
2013-01-24 17:43:00,21.5,3.9,30.25,NNE,32,11.0,26.0,46,0.00,,,0.00,Wunderground v.1.15,2013-01-24 22:43:00,
2013-01-24 17:53:00,21.6,4.0,30.26,NE,34,12.0,26.0,46,0.00,,,0.00,Wunderground v.1.15,2013-01-24 22:53:00,
2013-01-24 17:58:00,21.6,3.0,30.26,NNE,17,12.0,27.0,44,0.00,,,0.00,Wunderground v.1.15,2013-01-24 22:58:00,
2013-01-24 18:07:00,21.7,2.6,30.27,NNE,23,14.0,14.0,43,0.00,,,0.00,Wunderground v.1.15,2013-01-24 23:07:00,
2013-01-24 18:12:00,21.6,2.5,30.27,NNE,19,14.0,27.0,43,0.00,,,0.00,Wunderground v.1.15,2013-01-24 23:12:00,
2013-01-24 18:18:00,21.3,3.2,30.27,NE,37,12.0,12.0,45,0.00,,,0.00,Wunderground v.1.15,2013-01-24 23:18:00,
2013-01-24 18:23:00,21.5,2.4,30.28,NE,40,11.0,27.0,43,0.00,,,0.00,Wunderground v.1.15,2013-01-24 23:23:00,
2013-01-24 18:32:00,21.5,4.8,30.29,North,5,10.0,27.0,48,0.00,,,0.00,Wunderground v.1.15,2013-01-24 23:32:00,
2013-01-24 18:37:00,21.4,5.2,30.29,NNE,19,11.0,11.0,49,0.00,,,0.00,Wunderground v.1.15,2013-01-24 23:37:00,
2013-01-24 18:42:00,21.3,3.2,30.29,NE,34,12.0,12.0,45,0.00,,,0.00,Wunderground v.1.15,2013-01-24 23:42:00,
2013-01-24 18:48:00,21.2,2.6,30.29,NNE,21,13.0,27.0,44,0.00,,,0.00,Wunderground v.1.15,2013-01-24 23:48:00,
2013-01-24 18:53:00,20.9,3.3,30.29,NNE,32,13.0,27.0,46,0.00,,,0.00,Wunderground v.1.15,2013-01-24 23:53:00,
2013-01-24 19:03:00,20.9,3.3,30.30,NNE,26,13.0,13.0,46,0.00,,,0.00,Wunderground v.1.15,2013-01-25 00:03:00,
2013-01-24 19:12:00,20.8,3.7,30.30,NNE,30,13.0,27.0,47,0.00,,,0.00,Wunderground v.1.15,2013-01-25 00:12:00,
2013-01-24 19:22:00,20.7,3.6,30.30,NE,39,13.0,27.0,47,0.00,,,0.00,Wunderground v.1.15,2013-01-25 00:22:00,
2013-01-24 19:27:00,20.6,4.0,30.30,NE,34,12.0,12.0,48,0.00,,,0.00,Wunderground v.1.15,2013-01-25 00:27:00,
2013-01-24 19:37:00,20.5,3.4,30.31,NNE,19,11.0,11.0,47,0.00,,,0.00,Wunderground v.1.15,2013-01-25 00:37:00,
2013-01-24 19:47:00,20.2,2.7,30.31,NNE,31,12.0,12.0,46,0.00,,,0.00,Wunderground v.1.15,2013-01-25 00:47:00,
2013-01-24 19:57:00,20.5,3.9,30.31,NNE,17,12.0,27.0,48,0.00,,,0.00,Wunderground v.1.15,2013-01-25 00:57:00,
2013-01-24 20:02:00,20.3,3.7,30.31,NE,38,12.0,27.0,48,0.00,,,0.00,Wunderground v.1.15,2013-01-25 01:02:00,
2013-01-24 20:08:00,20.4,3.8,30.31,NNE,22,13.0,13.0,48,0.00,,,0.00,Wunderground v.1.15,2013-01-25 01:08:00,
2013-01-24 20:13:00,20.3,3.7,30.31,NNE,28,13.0,14.0,48,0.00,,,0.00,Wunderground v.1.15,2013-01-25 01:13:00,
2013-01-24 20:18:00,20.1,3.1,30.31,NE,42,12.0,27.0,47,0.00,,,0.00,Wunderground v.1.15,2013-01-25 01:18:00,
2013-01-24 20:23:00,20.0,3.0,30.31,NNE,15,12.0,27.0,47,0.00,,,0.00,Wunderground v.1.15,2013-01-25 01:23:00,
2013-01-24 20:28:00,20.0,3.4,30.31,North,11,13.0,13.0,48,0.00,,,0.00,Wunderground v.1.15,2013-01-25 01:28:00,
2013-01-24 20:38:00,19.8,2.8,30.31,NNE,23,11.0,27.0,47,0.00,,,0.00,Wunderground v.1.15,2013-01-25 01:38:00,
2013-01-24 20:43:00,19.9,3.3,30.32,NNE,25,13.0,27.0,48,0.00,,,0.00,Wunderground v.1.15,2013-01-25 01:43:00,
2013-01-24 20:48:00,19.8,3.7,30.31,NNE,21,13.0,13.0,49,0.00,,,0.00,Wunderground v.1.15,2013-01-25 01:48:00,
2013-01-24 20:53:00,19.9,4.7,30.31,NNW,344,12.0,27.0,51,0.00,,,0.00,Wunderground v.1.15,2013-01-25 01:53:00,
2013-01-24 20:58:00,19.9,3.8,30.32,North,5,12.0,27.0,49,0.00,,,0.00,Wunderground v.1.15,2013-01-25 01:58:00,
2013-01-24 21:03:00,19.9,3.8,30.32,NNE,17,11.0,27.0,49,0.00,,,0.00,Wunderground v.1.15,2013-01-25 02:03:00,
2013-01-24 21:13:00,19.8,2.8,30.32,NE,34,12.0,27.0,47,0.00,,,0.00,Wunderground v.1.15,2013-01-25 02:13:00,
2013-01-24 21:18:00,19.7,3.2,30.32,North,9,11.0,11.0,48,0.00,,,0.00,Wunderground v.1.15,2013-01-25 02:18:00,
2013-01-24 21:28:00,19.7,3.2,30.32,NE,38,12.0,27.0,48,0.00,,,0.00,Wunderground v.1.15,2013-01-25 02:28:00,
2013-01-24 21:33:00,19.5,3.4,30.32,NNE,15,12.0,27.0,49,0.00,,,0.00,Wunderground v.1.15,2013-01-25 02:33:00,
2013-01-24 21:38:00,19.5,3.0,30.32,NNE,19,11.0,27.0,48,0.00,,,0.00,Wunderground v.1.15,2013-01-25 02:38:00,
2013-01-24 21:48:00,19.6,3.9,30.33,NNE,25,10.0,27.0,50,0.00,,,0.00,Wunderground v.1.15,2013-01-25 02:48:00,
2013-01-24 21:53:00,19.3,4.9,30.33,North,355,8.0,27.0,53,0.00,,,0.00,Wunderground v.1.15,2013-01-25 02:53:00,
2013-01-24 21:58:00,19.2,4.8,30.33,North,11,7.0,7.0,53,0.00,,,0.00,Wunderground v.1.15,2013-01-25 02:58:00,
2013-01-24 22:03:00,18.9,5.0,30.33,NNE,25,7.0,27.0,54,0.00,,,0.00,Wunderground v.1.15,2013-01-25 03:03:00,
2013-01-24 22:08:00,19.0,4.2,30.34,NNE,27,7.0,7.0,52,0.00,,,0.00,Wunderground v.1.15,2013-01-25 03:08:00,
2013-01-24 22:18:00,19.1,4.3,30.35,NNE,33,7.0,27.0,52,0.00,,,0.00,Wunderground v.1.15,2013-01-25 03:18:00,
2013-01-24 22:23:00,19.2,4.4,30.35,NNE,23,10.0,27.0,52,0.00,,,0.00,Wunderground v.1.15,2013-01-25 03:23:00,
2013-01-24 22:28:00,18.9,4.6,30.35,NNE,20,10.0,27.0,53,0.00,,,0.00,Wunderground v.1.15,2013-01-25 03:28:00,
2013-01-24 22:33:00,19.0,3.4,30.35,NNE,32,10.0,27.0,50,0.00,,,0.00,Wunderground v.1.15,2013-01-25 03:33:00,
2013-01-24 22:38:00,18.8,4.1,30.35,NE,49,11.0,27.0,52,0.00,,,0.00,Wunderground v.1.15,2013-01-25 03:38:00,
2013-01-24 22:47:00,18.6,3.4,30.35,NE,42,10.0,10.0,51,0.00,,,0.00,Wunderground v.1.15,2013-01-25 03:47:00,
2013-01-24 22:52:00,18.4,3.7,30.35,NE,38,10.0,11.0,52,0.00,,,0.00,Wunderground v.1.15,2013-01-25 03:52:00,
2013-01-24 22:58:00,18.5,3.8,30.35,NNE,20,11.0,27.0,52,0.00,,,0.00,Wunderground v.1.15,2013-01-25 03:58:00,
2013-01-24 23:07:00,18.3,4.0,30.35,NNE,32,11.0,27.0,53,0.00,,,0.00,Wunderground v.1.15,2013-01-25 04:07:00,
2013-01-24 23:13:00,18.3,4.0,30.34,NNE,15,11.0,27.0,53,0.00,,,0.00,Wunderground v.1.15,2013-01-25 04:13:00,
2013-01-24 23:22:00,18.4,4.1,30.35,NE,39,11.0,27.0,53,0.00,,,0.00,Wunderground v.1.15,2013-01-25 04:22:00,
2013-01-24 23:28:00,18.4,4.1,30.34,NNE,26,11.0,27.0,53,0.00,,,0.00,Wunderground v.1.15,2013-01-25 04:28:00,
2013-01-24 23:37:00,18.2,4.3,30.35,NE,34,10.0,10.0,54,0.00,,,0.00,Wunderground v.1.15,2013-01-25 04:37:00,
2013-01-24 23:42:00,18.1,4.2,30.35,NE,44,11.0,11.0,54,0.00,,,0.00,Wunderground v.1.15,2013-01-25 04:42:00,
2013-01-24 23:47:00,18.1,4.2,30.35,NNE,17,11.0,27.0,54,0.00,,,0.00,Wunderground v.1.15,2013-01-25 04:47:00,
2013-01-24 23:57:00,18.0,4.9,30.34,NNE,19,9.0,9.0,56,0.00,,,0.00,Wunderground v.1.15,2013-01-25 04:57:00,